Regional Weather Roundup
Issued by NWS

Home | Current Version | Previous Version | Text Only | Print | Product List | Glossary On
Versions: 1 2 3 4 5 6 7 8 9 10 11 12 13 14 15 16 17 18 19 20 21 22 23 24 25 26 27
000
ASUS45 KBOI 252210
RWRID

IDAHO REGIONAL WEATHER ROUNDUP
NATIONAL WEATHER SERVICE BOISE ID
400 PM MDT SUN JUN 25 2017

NOTE: "FAIR" INDICATES FEW OR NO CLOUDS BELOW 12000 FEET
WITH NO SIGNIFICANT WEATHER AND/OR OBSTRUCTIONS TO VISIBILITY

IDZ012-014-252300-
SOUTHWEST IDAHO


CITY           SKY/WX    TMP DP  RH WIND       PRES   REMARKS
BOISE          SUNNY     94  35  12 VRB3      30.04F
CALDWELL       SUNNY     94  49  21 N6        30.03F HX  90
MOUNTAIN HOME  SUNNY     94  30  10 E8        30.05F
$$

IDZ016-017-252300-
SOUTHCENTRAL IDAHO


CITY           SKY/WX    TMP DP  RH WIND       PRES   REMARKS
BURLEY         SUNNY     88  42  20 NE8       30.13F
JEROME         SUNNY     91  28  10 VRB3      30.15F
TWIN FALLS     SUNNY     89  41  18 NE8       30.13F
$$

IDZ019>023-252300-
SOUTHEAST IDAHO


CITY           SKY/WX    TMP DP  RH WIND       PRES   REMARKS
IDAHO FALLS    SUNNY     84  45  25 VRB5      30.23F
POCATELLO      MOSUNNY   88  45  22 NW9       30.19F
REXBURG        SUNNY     81  37  20 VRB3      30.24F
$$

IDZ006-010-011-018-031-032-252300-
CENTRAL IDAHO MOUNTAINS


CITY           SKY/WX    TMP DP  RH WIND       PRES   REMARKS
MCCALL         SUNNY     84  41  21 W8        30.19F
HAILEY         SUNNY     82  43  24 CALM      30.26F
STANLEY          N/A     84  32  15 N8        30.29F
SALMON         SUNNY     84  41  21 W5        30.13F
CHALLIS        SUNNY     86  36  16 CALM      30.19F
$$

IDZ002-004-006-007-026-252300-
NORTHERN IDAHO


CITY           SKY/WX    TMP DP  RH WIND       PRES   REMARKS
LEWISTON       SUNNY     95  51  22 NE7       29.95F HX  92
LOWELL           N/A     95  51  22 S5        29.93F HX  92
COEUR D`ALENE  MOSUNNY   89  48  24 N7        30.05F
MULLAN PASS    SUNNY     77  35  21 VRB3      30.30F
$$




USA.gov is the U.S. government's official web portal to all federal, state and local government web resources and services.